Overview Statistics Trail Chart Weather Telemetry Raw packets
 

This is the latest recevied weather packets stored in our database for station/object 4S6DRJ-13. If no packets are shown the sender has not sent any weather packets the latest 10 day(s).

<< 411 412 413 414 415 416 417 >>
Time Temp. Humidity Pressure Rain* Wind** Luminosity Snow
1787837976 28.33° C 83% 1009.6 hPa 0 mm 0.45 m/s, 196° 0 W/m² -
1787837915 28.33° C 83% 1009.5 hPa 0 mm 0.45 m/s, 261° 0 W/m² -
1787837854 28.33° C 83% 1009.4 hPa 0 mm 0.45 m/s, 199° 0 W/m² -
1787837793 28.33° C 83% 1009.5 hPa 0 mm 0.89 m/s, 272° 0 W/m² -
1787837732 28.33° C 83% 1009.4 hPa 0 mm 0.89 m/s, 202° 0 W/m² -
1787837671 28.33° C 83% 1009.6 hPa 0 mm 0.45 m/s, 206° 0 W/m² -
1787837611 28.33° C 83% 1009.4 hPa 0 mm 0 m/s 0 W/m² -
1787837549 28.33° C 83% 1009.4 hPa 0 mm 0.45 m/s, 199° 0 W/m² -
1787837488 28.33° C 83% 1009.6 hPa 0 mm 0.89 m/s, 235° 0 W/m² -
1787837428 28.33° C 83% 1009.5 hPa 0 mm 1.79 m/s, 169° 0 W/m² -
1787837366 28.33° C 83% 1009.4 hPa 0 mm 0.89 m/s, 254° 0 W/m² -
1787837305 28.33° C 83% 1009.6 hPa 0 mm 0 m/s 0 W/m² -
1787837244 28.33° C 83% 1009.4 hPa 0 mm 0.45 m/s, 272° 0 W/m² -
1787837183 28.33° C 83% 1009.3 hPa 0 mm 0.89 m/s, 242° 0 W/m² -
1787837122 28.33° C 83% 1009.5 hPa 0 mm 1.79 m/s, 233° 0 W/m² -
1787837061 28.33° C 83% 1009.5 hPa 0 mm 0.45 m/s, 256° 0 W/m² -
1787837000 28.33° C 83% 1009.3 hPa 0 mm 0 m/s 0 W/m² -
1787836940 28.33° C 83% 1009.3 hPa 0 mm 0.45 m/s, 232° 0 W/m² -
1787836878 28.33° C 83% 1009.3 hPa 0 mm 1.34 m/s, 286° 0 W/m² -
1787836817 28.33° C 83% 1009.3 hPa 0 mm 0.89 m/s, 253° 0 W/m² -
1787836756 28.33° C 83% 1009.5 hPa 0 mm 0.45 m/s, 220° 0 W/m² -
1787836695 28.33° C 83% 1009.3 hPa 0 mm 0 m/s 0 W/m² -
1787836634 28.33° C 83% 1009.1 hPa 0 mm 0.45 m/s, 253° 0 W/m² -
1787836574 28.33° C 83% 1009.3 hPa 0 mm 0.89 m/s, 233° 0 W/m² -
1787836512 28.33° C 83% 1009.3 hPa 0 mm 0.89 m/s, 220° 0 W/m² -

* Rain latest hour (hover to see other rain measurements)
** Current wind speed in m/s (hover to see current wind gust speed)